Wind_Speed
31 31 31 31 30 30 29 29 28 29 30 30 30 30 29 29 29 29 29 29 29 29 30 30 29 29 29 29 29 29 29 29 29 28 28 27 27 28
31 31 32 31 31 30 30 29 29 29 29 30 30 30 30 30 29 29 29 29 29 30 30 30 30 30 29 29 29 29 28 28 27 27 27 26 26 27
30 30 30 31 30 30 30 29 29 29 29 29 30 30 30 30 30 30 30 29 29 29 29 30 29 30 29 29 29 28 27 26 26 26 26 26 27 26
28 28 29 29 30 30 31 30 29 29 29 29 29 29 29 29 29 29 29 29 29 29 29 29 29 29 28 28 27 26 26 26 25 24 24 25 25 25
28 28 28 29 29 29 30 30 30 30 30 29 28 29 29 29 29 29 28 29 29 28 29 29 29 29 28 27 26 24 24 24 24 24 24 24 24 24
28 28 28 28 29 29 29 30 30 30 30 29 29 28 29 28 28 28 28 28 27 27 27 27 27 27 26 26 25 25 25 25 24 23 23 23 23 23
26 27 27 28 28 28 28 29 29 29 30 29 29 29 29 29 28 28 27 27 26 26 26 26 26 27 27 27 26 25 25 24 24 24 23 23 23 24
25 26 27 28 27 27 27 27 28 28 28 29 29 29 29 28 28 28 27 27 26 26 26 26 26 26 26 26 26 25 25 25 25 24 24 23 24 24
24 25 25 25 25 26 26 26 27 27 27 27 27 27 27 28 28 28 27 27 26 25 26 26 26 25 25 25 25 25 25 24 24 24 24 24 24 24
21 22 22 23 23 24 25 25 24 24 25 26 27 27 27 27 27 27 26 26 26 25 25 24 24 24 23 23 23 23 23 23 23 23 24 24 23 23
19 19 20 20 21 22 22 23 24 24 24 25 25 26 26 26 26 26 26 26 26 25 23 23 23 22 22 22 21 21 21 21 22 22 22 21 21 20
16 17 17 17 17 18 18 19 21 22 22 22 22 23 23 24 24 23 23 23 23 23 22 22 22 21 21 21 20 20 20 19 19 20 20 19 19 19
14 14 15 14 14 14 15 16 17 18 19 19 20 20 20 21 21 21 22 21 21 21 20 19 19 18 18 18 18 18 18 18 18 18 18 18 17 17
12 12 12 12 13 13 13 14 14 15 16 17 18 18 18 18 19 19 19 20 20 19 18 18 17 17 17 17 17 17 16 17 16 16 16 16 16 16
9 9 9 9 9 9 11 11 12 12 13 14 15 15 16 17 17 18 18 18 18 18 17 17 17 17 17 17 16 16 15 15 15 15 15 15 15 15
7 7 7 6 6 6 7 8 9 10 11 12 12 13 14 14 16 17 16 17 17 17 17 17 17 17 16 16 15 15 14 14 14 14 14 15 15 15
6 5 5 4 4 4 5 6 7 7 8 10 11 12 12 13 14 15 16 16 16 16 16 16 16 16 16 15 14 14 14 14 14 14 15 15 16 16
5 5 4 3 2 2 2 3 4 5 6 8 9 10 11 12 13 14 14 14 15 15 16 15 15 15 14 14 14 14 14 15 15 15 15 16 16 17
5 4 3 3 3 3 2 2 2 3 4 5 7 8 9 11 12 13 14 14 14 14 14 14 14 14 14 14 14 14 15 15 15 16 16 16 17 17
6 5 4 3 3 3 3 2 3 3 4 5 6 7 9 10 10 11 12 13 14 14 14 14 14 14 14 14 14 15 16 16 16 17 17 18 18 19
6 5 5 5 5 4 3 3 3 4 4 5 6 8 8 9 10 10 11 12 13 13 13 14 14 14 14 15 15 16 17 17 18 18 19 20 21 21
6 6 6 6 5 4 4 3 3 4 4 5 6 7 8 8 9 9 10 11 12 13 13 14 14 15 15 16 17 17 18 18 19 19 20 21 21 22
7 7 7 7 6 5 5 5 4 4 5 6 7 8 8 9 9 10 11 12 13 14 14 15 16 16 17 17 18 19 19 20 20 20 20 21 22 23
Wind_Direction
267 265 264 263 260 260 258 256 254 254 254 254 253 254 255 256 257 257 257 259 260 261 262 263 264 265 267 268 270 271 272 274 274 272 274 275 275 276
267 265 264 262 260 259 257 255 255 255 255 255 254 255 255 257 257 258 258 259 260 261 262 264 265 267 268 269 271 272 273 275 274 274 274 275 276 278
268 266 264 262 262 261 259 257 257 257 256 255 256 255 256 256 257 258 258 259 260 261 263 265 266 267 267 269 270 273 274 273 272 273 273 274 277 278
270 266 265 264 264 263 261 260 258 258 257 256 255 255 255 257 259 259 259 261 262 262 264 265 265 266 267 268 270 272 273 272 271 273 274 275 277 279
270 268 267 265 264 263 261 259 258 258 258 256 255 256 257 258 259 261 262 262 263 264 265 264 264 264 265 266 267 270 271 271 271 273 275 276 277 279
269 269 268 267 265 263 261 261 260 258 257 257 257 257 256 257 258 259 260 262 263 264 264 263 263 265 265 267 267 268 269 270 270 271 273 275 278 279
269 269 268 268 266 263 261 259 258 257 256 256 257 257 256 256 257 257 259 261 262 263 263 263 264 265 265 265 267 268 267 268 269 271 273 275 277 279
272 270 270 269 266 264 261 259 257 256 255 255 254 253 254 255 256 256 258 260 261 261 262 263 264 265 265 265 265 266 265 268 271 272 272 274 277 279
274 272 270 269 267 265 262 259 257 255 255 254 252 251 252 254 255 255 256 258 259 260 260 261 263 263 263 263 263 264 266 268 269 270 272 274 277 278
276 274 271 269 267 265 263 261 257 255 254 252 252 251 251 253 253 255 255 256 256 256 256 259 259 260 262 263 264 264 266 268 270 272 273 274 275 276
280 278 275 272 268 266 263 260 257 256 254 253 253 251 250 251 252 252 253 253 253 252 253 256 258 260 261 262 263 265 266 268 270 271 272 272 272 273
285 282 279 273 267 264 260 258 255 254 255 254 253 252 250 249 248 248 248 247 248 248 250 254 256 258 260 260 262 263 264 267 269 269 270 269 270 271
289 286 283 275 266 260 257 256 255 253 251 251 251 251 249 246 243 244 244 242 243 244 247 250 251 252 255 258 260 261 263 266 268 269 268 268 268 269
295 292 288 280 269 263 259 258 253 249 249 249 248 246 244 241 239 238 238 238 240 242 244 245 247 250 252 255 258 261 264 267 267 266 267 268 268 270
302 299 295 287 273 265 260 256 252 248 246 245 243 242 240 237 234 234 235 234 235 238 241 241 243 246 249 254 259 261 264 266 267 267 267 267 269 272
315 308 299 291 283 274 263 256 250 245 241 240 239 237 234 233 231 231 233 233 232 234 237 238 241 242 245 250 254 257 260 263 266 267 267 268 271 273
338 333 326 304 294 283 264 249 242 237 236 236 234 231 228 226 225 225 227 228 230 236 239 239 241 242 243 248 252 255 258 261 265 269 270 271 274 277
353 350 344 327 317 315 290 251 238 233 234 235 230 226 224 223 223 224 225 225 229 232 236 238 239 241 244 249 252 256 259 264 268 271 273 275 276 278
4 2 354 343 334 326 308 287 260 238 231 231 226 224 223 223 224 223 223 224 229 231 232 235 239 243 248 253 257 260 264 268 271 273 275 277 279 281
3 3 359 345 334 329 318 289 258 245 242 237 223 222 221 221 221 221 223 225 229 232 236 240 244 248 253 256 259 264 268 271 274 276 279 281 283 285
3 3 358 349 339 335 325 299 269 252 245 238 234 230 226 228 229 227 230 231 231 234 237 241 245 250 253 258 262 266 270 273 277 279 281 283 285 287
4 -0 355 351 348 344 338 314 284 259 247 246 243 237 237 238 232 232 235 233 233 237 242 246 250 255 258 263 267 271 274 277 279 281 283 284 287 289
346 344 343 340 335 327 317 311 298 276 263 257 254 251 249 247 245 245 246 245 246 248 250 252 256 260 262 265 269 272 275 278 281 283 285 287 289 290
Height
5768 5768 5769 5769 5770 5771 5772 5773 5775 5776 5777 5779 5780 5781 5782 5784 5785 5786 5788 5789 5790 5791 5792 5793 5793 5794 5794 5794 5794 5794 5794 5794 5794 5793 5793 5792 5792 5791
5760 5760 5760 5761 5762 5763 5764 5765 5767 5768 5769 5770 5772 5774 5775 5776 5778 5779 5780 5781 5782 5783 5784 5785 5786 5786 5787 5787 5787 5787 5787 5787 5786 5786 5786 5786 5785 5784
5751 5752 5752 5753 5754 5755 5756 5757 5758 5760 5761 5762 5764 5766 5767 5769 5770 5771 5772 5774 5775 5775 5777 5778 5778 5779 5779 5780 5780 5780 5780 5780 5780 5780 5779 5779 5779 5778
5743 5743 5744 5744 5745 5746 5747 5749 5750 5752 5753 5755 5756 5758 5760 5761 5762 5763 5765 5766 5767 5768 5769 5770 5771 5771 5772 5773 5773 5773 5773 5773 5773 5773 5773 5773 5772 5771
5735 5735 5736 5736 5737 5738 5739 5740 5742 5743 5745 5747 5748 5750 5752 5753 5755 5756 5757 5758 5759 5760 5761 5762 5763 5764 5765 5766 5766 5766 5767 5767 5767 5767 5766 5766 5765 5765
5727 5728 5728 5728 5729 5729 5731 5732 5733 5735 5737 5739 5741 5742 5744 5745 5747 5749 5750 5751 5752 5753 5754 5755 5756 5757 5758 5759 5759 5760 5760 5760 5760 5760 5760 5760 5759 5758
5719 5719 5720 5720 5720 5721 5722 5724 5725 5727 5729 5730 5732 5734 5736 5738 5739 5741 5742 5744 5745 5746 5747 5748 5749 5750 5750 5751 5752 5753 5753 5753 5753 5754 5753 5753 5752 5752
5712 5711 5712 5712 5712 5713 5714 5715 5717 5718 5720 5722 5724 5726 5728 5730 5732 5733 5735 5736 5738 5739 5740 5741 5742 5743 5743 5744 5745 5746 5746 5747 5747 5747 5747 5746 5746 5745
5704 5704 5704 5704 5705 5705 5706 5707 5709 5710 5712 5714 5716 5718 5720 5722 5724 5726 5727 5729 5730 5732 5733 5734 5735 5736 5736 5737 5738 5739 5740 5740 5740 5740 5740 5740 5739 5738
5697 5697 5697 5697 5697 5698 5699 5700 5701 5703 5704 5706 5709 5710 5712 5714 5716 5718 5720 5721 5723 5725 5726 5727 5728 5729 5730 5731 5732 5732 5733 5733 5733 5733 5733 5733 5733 5732
5692 5691 5690 5690 5690 5691 5691 5692 5694 5695 5697 5699 5700 5702 5704 5706 5708 5710 5712 5714 5716 5718 5719 5721 5722 5723 5724 5725 5726 5726 5727 5727 5727 5727 5727 5727 5726 5726
5687 5686 5685 5684 5684 5684 5685 5685 5687 5688 5690 5692 5693 5695 5697 5699 5701 5703 5705 5708 5709 5711 5713 5715 5716 5717 5718 5719 5720 5720 5721 5721 5721 5721 5721 5721 5720 5720
5682 5681 5680 5679 5679 5679 5679 5680 5681 5682 5684 5686 5687 5689 5691 5693 5695 5697 5699 5702 5704 5706 5708 5709 5710 5712 5713 5714 5714 5715 5715 5715 5715 5715 5715 5715 5714 5714
5679 5678 5676 5675 5675 5675 5675 5676 5676 5677 5679 5680 5682 5683 5685 5687 5690 5692 5694 5696 5698 5701 5703 5704 5706 5707 5708 5709 5709 5710 5710 5710 5710 5710 5710 5709 5709 5709
5677 5675 5674 5673 5672 5671 5672 5672 5673 5674 5675 5676 5677 5679 5681 5683 5685 5687 5689 5691 5694 5696 5698 5699 5701 5702 5703 5704 5705 5705 5705 5705 5705 5705 5705 5705 5704 5704
5675 5674 5672 5671 5670 5670 5669 5670 5670 5670 5671 5672 5674 5675 5677 5678 5681 5683 5685 5687 5690 5691 5693 5695 5696 5697 5698 5699 5700 5700 5700 5701 5701 5700 5700 5700 5700 5699
5674 5673 5671 5670 5669 5669 5668 5668 5668 5669 5669 5670 5671 5672 5673 5675 5677 5679 5681 5683 5686 5688 5689 5691 5692 5693 5694 5695 5696 5696 5696 5696 5696 5696 5696 5696 5695 5694
5674 5673 5671 5670 5669 5668 5668 5667 5667 5667 5668 5668 5669 5670 5671 5672 5674 5676 5678 5680 5682 5684 5685 5687 5688 5689 5690 5691 5692 5692 5692 5692 5692 5692 5691 5690 5690 5689
5675 5673 5672 5671 5670 5668 5668 5667 5667 5667 5667 5667 5668 5668 5669 5671 5672 5673 5675 5677 5678 5680 5681 5683 5684 5685 5686 5687 5688 5688 5688 5688 5687 5687 5686 5685 5684 5683
5675 5674 5672 5671 5670 5669 5668 5667 5667 5667 5666 5666 5667 5667 5668 5669 5670 5671 5673 5674 5675 5677 5678 5679 5680 5681 5682 5683 5683 5683 5683 5683 5682 5681 5680 5679 5678 5677
5675 5674 5673 5672 5670 5669 5668 5667 5666 5666 5666 5666 5666 5666 5666 5667 5668 5669 5670 5671 5672 5673 5674 5676 5677 5677 5678 5678 5678 5678 5678 5678 5677 5676 5675 5673 5672 5670
5676 5675 5673 5672 5670 5669 5668 5667 5666 5665 5665 5665 5664 5665 5665 5665 5666 5666 5667 5668 5669 5670 5670 5671 5672 5673 5673 5673 5673 5673 5672 5672 5670 5669 5668 5667 5665 5663
5676 5675 5673 5671 5670 5668 5667 5666 5665 5664 5664 5663 5663 5663 5663 5663 5663 5664 5664 5665 5665 5666 5666 5667 5667 5667 5667 5667 5667 5667 5666 5665 5664 5663 5662 5660 5658 5656